1491789600.71,7905,13.19,74018.5,-2.53,-29.95,-30.45,0,*6A
1491789601.94,7906,13.19,74022.0,-2.53,-29.89,-30.45,0,*64
1491789603.15,7907,13.19,74022.0,-2.53,-29.95,-30.45,0,*68
1491789604.4,7908,13.19,74020.0,-2.53,-30.05,-30.73,0,*63
1491789605.66,7909,13.19,74018.5,-2.53,-29.89,-30.61,0,*6D
1491789606.92,7910,13.19,74016.5,-2.53,-30.05,-30.61,0,*69
1491789608.17,7911,13.19,74020.8,-2.53,-30.05,-30.73,0,*6B
1491789609.4,7912,13.19,74018.8,-2.53,-29.95,-30.55,0,*6D
1491789610.65,7913,13.19,74020.5,-2.53,-30.05,-30.55,0,*6D
1491789611.89,7914,13.19,74016.8,-2.53,-29.95,-30.61,0,*6C
1491789613.14,7915,13.19,74018.0,-2.53,-30.05,-30.77,0,*6B
1491789614.38,7916,13.19,74022.3,-2.51,-29.83,-30.33,0,*6C
1491789615.66,7917,13.19,74020.3,-2.51,-29.89,-30.39,0,*6D
1491789616.94,7918,13.19,74020.0,-2.51,-29.89,-30.51,0,*6C
1491789618.21,7919,13.19,74022.3,-2.51,-30.01,-30.55,0,*61
1491789619.48,7920,13.19,74022.3,-2.51,-30.01,-30.51,0,*6F
1491789620.72,7921,13.19,74018.5,-2.49,-30.01,-30.55,0,*63
1491789621.99,7922,13.19,74020.3,-2.51,-30.01,-30.55,0,*69
1491789623.28,7923,13.19,74020.3,-2.51,-30.01,-30.73,0,*6C
1491789624.55,7924,13.19,74018.3,-2.51,-30.01,-30.51,0,*6B
1491789625.83,7925,13.19,74016.8,-2.51,-29.89,-30.51,0,*62
1491789627.08,7926,13.25,74020.8,-2.51,-30.17,-30.67,0,*6B
1491789628.34,7927,13.19,74020.8,-2.51,-30.05,-30.67,0,*69
1491789629.61,7928,13.19,74018.8,-2.51,-30.05,-30.51,0,*63
1491789630.87,7929,13.19,74022.8,-2.49,-30.17,-30.73,0,*68
1491789632.12,7930,13.19,74018.0,-2.51,-30.05,-30.67,0,*6F
1491789633.37,7931,13.19,74018.8,-2.51,-29.83,-30.55,0,*69
1491789634.63,7932,13.19,74022.5,-2.51,-29.83,-30.55,0,*6A
1491789635.88,7933,13.19,74020.3,-2.49,-30.17,-30.73,0,*63
1491789637.14,7934,13.19,74018.0,-2.51,-30.05,-30.67,0,*6B
1491789638.39,7935,13.19,74016.3,-2.51,-30.05,-30.67,0,*6A
1491789639.65,7936,13.19,74020.8,-2.51,-30.05,-30.67,0,*69
1491789640.87,7937,13.19,74018.3,-2.49,-30.05,-30.67,0,*61
1491789642.13,7938,13.19,74020.8,-2.51,-30.17,-30.67,0,*64
1491789643.41,7939,13.19,74016.8,-2.51,-30.01,-30.73,0,*67
1491789644.69,7940,13.19,74020.5,-2.51,-30.17,-30.73,0,*6E
1491789645.95,7941,13.19,74020.0,-2.51,-30.01,-30.67,0,*6D
1491789647.21,7942,13.19,74016.8,-2.51,-30.01,-30.67,0,*6E
1491789648.46,7943,13.19,74020.3,-2.49,-30.17,-30.73,0,*64
1491789649.74,7944,13.19,74020.8,-2.51,-30.05,-30.73,0,*69
1491789651.01,7945,13.19,74020.8,-2.51,-30.01,-30.51,0,*6C
1491789652.28,7946,13.19,74020.3,-2.51,-30.01,-30.55,0,*6B
1491789653.54,7947,13.19,74018.5,-2.51,-30.05,-30.67,0,*6F
1491789654.81,7948,13.19,74016.5,-2.51,-30.05,-30.51,0,*65
1491789656.08,7949,13.19,74016.0,-2.51,-30.01,-30.55,0,*64
1491789657.35,7950,13.19,74020.0,-2.51,-30.05,-30.55,0,*68
1491789658.61,7951,13.19,74022.3,-2.51,-30.01,-30.67,0,*6C
1491789659.86,7952,13.19,74018.5,-2.51,-30.01,-30.67,0,*6F
1491789661.09,7953,13.19,74022.5,-2.49,-30.05,-30.67,0,*63
1491789662.35,7954,13.19,74016.5,-2.51,-30.17,-30.67,0,*6E
1491789663.63,7955,13.19,74016.8,-2.51,-30.17,-30.73,0,*6A
1491789664.91,7956,13.19,74018.0,-2.51,-30.17,-30.73,0,*69
1491789666.17,7957,13.19,74018.5,-2.51,-30.05,-30.67,0,*6E
1491789667.41,7958,13.19,74018.3,-2.49,-30.05,-30.55,0,*69
1491789668.69,7959,13.19,74020.8,-2.51,-30.17,-30.55,0,*62
1491789669.92,7960,13.19,74018.0,-2.49,-30.17,-30.83,0,*6A
1491789671.2,7961,13.19,74020.3,-2.51,-30.17,-30.73,0,*6D
1491789672.43,7962,13.19,74022.5,-2.49,-30.05,-30.67,0,*61
1491789673.69,7963,13.19,74016.3,-2.51,-30.17,-30.67,0,*6A
1491789674.94,7964,13.25,74022.0,-2.51,-30.23,-30.89,0,*6A
1491789676.19,7965,13.19,74022.3,-2.51,-30.23,-30.89,0,*6B
1491789677.42,7966,13.19,74022.0,-2.49,-30.33,-30.89,0,*60
1491789678.62,7967,13.19,74020.0,-2.49,-30.23,-30.83,0,*6A
1491789679.88,7968,13.19,74018.5,-2.51,-30.17,-30.83,0,*6B
1491789681.16,7969,13.19,74016.5,-2.51,-30.17,-30.89,0,*60
1491789682.4,7970,13.19,74018.8,-2.51,-30.23,-30.83,0,*65
1491789683.68,7971,13.19,74018.3,-2.51,-30.17,-30.73,0,*6C
1491789684.94,7972,13.25,74020.0,-2.51,-30.17,-30.67,0,*6A
1491789686.19,7973,13.19,74018.3,-2.49,-30.05,-30.73,0,*64
1491789687.45,7974,13.19,74020.0,-2.51,-30.17,-30.67,0,*6C
1491789688.71,7975,13.19,74020.0,-2.51,-30.17,-30.83,0,*67
1491789689.97,7976,13.19,74022.0,-2.51,-30.17,-30.83,0,*64
1491789691.23,7977,13.19,74018.0,-2.51,-30.17,-30.83,0,*65
1491789692.51,7978,13.19,74018.5,-2.51,-30.17,-30.73,0,*65
1491789693.76,7979,13.19,74018.0,-2.51,-30.23,-30.89,0,*66
1491789695.01,7980,13.25,74020.0,-2.51,-30.05,-30.67,0,*64
1491789696.27,7981,13.25,74020.8,-2.51,-30.17,-30.67,0,*66
1491789697.53,7982,13.19,74022.0,-2.51,-30.17,-30.83,0,*6F
1491789698.76,7983,13.19,74016.5,-2.51,-30.23,-30.83,0,*69
1491789700.04,7984,13.19,74020.3,-2.51,-30.05,-30.73,0,*65
1491789701.3,7985,13.19,74018.0,-2.51,-30.05,-30.67,0,*61
1491789702.58,7986,13.25,74020.8,-2.51,-30.17,-30.73,0,*64
1491789703.8,7987,13.25,74020.0,-2.49,-30.23,-30.95,0,*63
1491789705.03,7988,13.19,74018.8,-2.51,-30.23,-30.83,0,*62
1491789706.28,7989,13.25,74020.8,-2.51,-30.17,-30.67,0,*6E
1491789707.56,7990,13.25,74022.3,-2.51,-30.05,-30.73,0,*60
1491789708.81,7991,13.19,74018.5,-2.51,-30.23,-30.73,0,*65
1491789710.05,7992,13.25,74020.8,-2.51,-30.23,-30.83,0,*69
1491789711.3,7993,13.19,74016.8,-2.51,-30.17,-30.67,0,*65
1491789712.59,7994,13.19,74018.0,-2.51,-30.17,-30.73,0,*67
1491789713.87,7995,13.19,74020.3,-2.51,-30.17,-30.73,0,*66
1491789715.1,7996,13.19,74016.8,-2.51,-30.33,-30.83,0,*6C
1491789716.33,7997,13.19,74020.5,-2.51,-30.23,-30.83,0,*6C
1491789717.56,7998,13.19,74022.3,-2.53,-30.23,-30.77,0,*6A
1491789718.82,7999,13.25,74022.3,-2.55,-30.27,-30.89,0,*68
1491789720.07,8000,13.19,74016.8,-2.51,-30.23,-30.89,0,*6E
1491789721.33,8001,13.19,74016.0,-2.51,-30.17,-30.83,0,*62
1491789722.55,8002,13.19,74022.0,-2.53,-30.23,-30.95,0,*63
1491789723.81,8003,13.25,74020.8,-2.53,-30.05,-30.77,0,*6A
1491789725.04,8004,13.25,74020.8,-2.53,-30.23,-30.89,0,*68
1491789726.27,8005,13.25,74020.0,-2.53,-30.23,-30.89,0,*69
1491789727.52,8006,13.25,74022.8,-2.53,-30.39,-30.89,0,*61
1491789728.76,8007,13.19,74016.8,-2.53,-30.27,-30.89,0,*6F
1491789729.99,8008,13.19,74016.3,-2.53,-30.23,-30.89,0,*64
1491789731.26,8009,13.25,74020.3,-2.55,-30.39,-30.89,0,*68
1491789732.5,8010,13.19,74020.3,-2.53,-30.27,-30.89,0,*69
1491789733.73,8011,13.19,74020.5,-2.53,-30.11,-30.89,0,*6D
1491789734.97,8012,13.19,74016.0,-2.53,-30.23,-30.77,0,*6E
1491789736.2,8013,13.25,74022.5,-2.53,-30.11,-30.77,0,*6E
1491789737.43,8014,13.25,74020.3,-2.53,-30.11,-30.73,0,*6D
1491789738.66,8015,13.19,74016.8,-2.53,-30.23,-30.89,0,*68
1491789739.89,8016,13.19,74020.0,-2.53,-30.11,-30.73,0,*6F
1491789741.13,8017,13.25,74022.0,-2.53,-30.23,-30.77,0,*6B
1491789742.35,8018,13.25,74020.8,-2.53,-30.23,-30.95,0,*68
1491789743.6,8019,13.25,74022.8,-2.55,-30.23,-30.89,0,*62
1491789744.83,8020,13.25,74020.8,-2.53,-30.23,-30.89,0,*6E
1491789746.09,8021,13.19,74018.3,-2.55,-30.23,-30.77,0,*68
1491789747.32,8022,13.19,74016.0,-2.53,-30.23,-30.77,0,*6D
1491789748.55,8023,13.19,74016.8,-2.53,-30.23,-30.73,0,*68
1491789749.78,8024,13.19,74016.8,-2.53,-30.23,-30.73,0,*6F
1491789751.01,8025,13.19,74018.3,-2.53,-30.11,-30.73,0,*6F
1491789752.27,8026,13.19,74020.0,-2.53,-30.05,-30.77,0,*6D
1491789753.51,8027,13.19,74018.0,-2.53,-30.27,-30.89,0,*6D
1491789754.76,8028,13.19,74016.8,-2.55,-30.23,-30.73,0,*65
1491789756.0,8029,13.19,74016.3,-2.53,-30.11,-30.77,0,*67
1491789757.23,8030,13.19,74022.0,-2.53,-30.23,-30.77,0,*6E
1491789758.46,8031,13.19,74018.3,-2.53,-30.11,-30.73,0,*6A
1491789759.69,8032,13.19,74016.0,-2.53,-30.11,-30.89,0,*6C
1491789760.93,8033,13.19,74018.5,-2.53,-30.11,-30.73,0,*68
1491789762.16,8034,13.19,74018.8,-2.53,-30.23,-30.77,0,*6A
1491789763.43,8035,13.19,74018.0,-2.51,-30.05,-30.55,0,*6D
1491789764.69,8036,13.19,74020.0,-2.51,-30.17,-30.67,0,*6C
1491789765.94,8037,13.19,74016.5,-2.55,-30.23,-30.77,0,*6F
1491789767.18,8038,13.19,74020.0,-2.53,-30.11,-30.77,0,*67
1491789768.44,8039,13.19,74018.0,-2.55,-30.27,-30.89,0,*64
1491789769.68,8040,13.19,74020.3,-2.53,-30.27,-30.77,0,*6D
1491789770.93,8041,13.19,74016.0,-2.55,-30.23,-30.73,0,*6A
1491789772.16,8042,13.19,74016.5,-2.53,-30.11,-30.73,0,*6E
1491789773.4,8043,13.19,74020.3,-2.53,-30.23,-30.77,0,*6A
1491789774.66,8044,13.19,74020.3,-2.55,-30.27,-30.89,0,*6E
1491789775.89,8045,13.19,74018.0,-2.53,-30.11,-30.73,0,*69
1491789777.17,8046,13.19,74018.5,-2.55,-30.05,-30.73,0,*69
1491789778.4,8047,13.19,74020.5,-2.53,-30.23,-30.73,0,*6A
1491789779.63,8048,13.19,74018.3,-2.53,-30.11,-30.73,0,*64
1491789780.89,8049,13.19,74018.0,-2.55,-30.11,-30.77,0,*67
1491789782.12,8050,13.19,74018.5,-2.53,-30.23,-30.77,0,*68
1491789783.38,8051,13.19,74018.0,-2.55,-30.11,-30.77,0,*6E
1491789784.62,8052,13.19,74018.3,-2.53,-29.95,-30.61,0,*68
1491789785.87,8053,13.19,74020.3,-2.53,-30.05,-30.73,0,*6B
1491789787.11,8054,13.19,74018.0,-2.53,-30.11,-30.77,0,*6D
1491789788.39,8055,13.19,74020.0,-2.51,-30.01,-30.73,0,*6B
1491789789.62,8056,13.19,74020.8,-2.53,-30.23,-30.77,0,*6E
1491789790.86,8057,13.19,74016.5,-2.53,-30.11,-30.77,0,*6E
1491789792.09,8058,13.19,74016.8,-2.53,-30.11,-30.77,0,*61
1491789793.32,8059,13.19,74022.5,-2.53,-30.23,-30.77,0,*61
1491789794.58,8060,13.19,74018.0,-2.51,-30.17,-30.83,0,*65
1491789795.82,8061,13.19,74018.3,-2.53,-29.95,-30.73,0,*6B
1491789797.05,8062,13.19,74016.3,-2.53,-30.11,-30.73,0,*6C
1491789798.28,8063,13.19,74016.8,-2.53,-30.11,-30.73,0,*6D
1491789799.51,8064,13.19,74022.5,-2.53,-30.23,-30.89,0,*6E
1491789800.77,8065,13.19,74022.3,-2.51,-30.05,-30.67,0,*69
1491789802.02,8066,13.19,74016.3,-2.53,-30.05,-30.61,0,*6E
1491789803.28,8067,13.19,74016.8,-2.55,-30.11,-30.61,0,*6C
1491789804.51,8068,13.19,74020.5,-2.53,-30.11,-30.73,0,*66
1491789805.74,8069,13.19,74018.8,-2.53,-30.11,-30.73,0,*67
1491789806.98,8070,13.25,74020.5,-2.53,-30.11,-30.73,0,*6F
1491789808.21,8071,13.19,74012.8,-2.53,-30.11,-30.77,0,*6A
1491789809.44,8072,13.19,74016.3,-2.53,-30.11,-30.73,0,*6D
1491789810.68,8073,13.19,74020.8,-2.53,-30.11,-30.77,0,*68
1491789811.96,8074,13.19,74014.0,-2.55,-30.05,-30.61,0,*6B
1491789813.19,8075,13.19,74020.0,-2.53,-29.95,-30.61,0,*6D
1491789814.47,8076,13.19,74018.8,-2.51,-29.89,-30.51,0,*62
1491789815.73,8077,13.19,74018.8,-2.53,-30.05,-30.73,0,*6D
1491789816.96,8078,13.19,74018.8,-2.53,-30.23,-30.61,0,*65
1491789818.19,8079,13.19,74018.3,-2.53,-30.11,-30.73,0,*66
1491789819.43,8080,13.19,74014.5,-2.53,-29.95,-30.61,0,*67
1491789820.68,8081,13.19,74014.3,-2.53,-30.05,-30.73,0,*64
1491789821.91,8082,13.19,74022.8,-2.53,-30.11,-30.73,0,*62
1491789823.17,8083,13.19,74016.8,-2.53,-30.05,-30.77,0,*62
1491789824.43,8084,13.19,74020.0,-2.53,-30.05,-30.73,0,*61
1491789825.65,8085,13.19,74018.3,-2.53,-29.79,-30.55,0,*67
1491789826.91,8086,13.19,74022.3,-2.51,-29.83,-30.55,0,*63
1491789828.18,8087,13.19,74016.8,-2.51,-30.01,-30.55,0,*60
1491789829.46,8088,13.19,74014.0,-2.51,-29.89,-30.55,0,*67
1491789830.73,8089,13.19,74018.0,-2.51,-29.89,-30.55,0,*66
1491789832.01,8090,13.19,74016.0,-2.51,-30.01,-30.55,0,*66
1491789833.26,8091,13.19,74018.5,-2.51,-30.01,-30.67,0,*66
1491789834.53,8092,13.19,74016.5,-2.51,-30.01,-30.55,0,*64
1491789835.79,8093,13.19,74014.3,-2.51,-30.01,-30.67,0,*64
1491789837.04,8094,13.19,74018.0,-2.49,-29.89,-30.39,0,*69
1491789838.31,8095,13.19,74016.5,-2.51,-30.01,-30.55,0,*63
1491789839.54,8096,13.19,74020.5,-2.49,-29.83,-30.51,0,*6F
1491789840.79,8097,13.19,74016.3,-2.49,-29.89,-30.51,0,*64
1491789842.02,8098,13.19,74016.5,-2.49,-30.01,-30.67,0,*66
1491789843.27,8099,13.19,74018.3,-2.49,-29.89,-30.55,0,*6E
1491789844.52,8100,13.19,74016.3,-2.49,-29.89,-30.55,0,*6F
1491789845.78,8101,13.19,74016.3,-2.49,-30.01,-30.73,0,*62
1491789847.0,8102,13.19,74016.5,-2.49,-30.05,-30.67,0,*60
1491789848.25,8103,13.19,74014.3,-2.49,-30.05,-30.55,0,*60
1491789849.5,8104,13.19,74016.0,-2.51,-30.01,-30.67,0,*6B
1491789850.79,8105,13.19,74016.0,-2.51,-30.17,-30.73,0,*68
1491789852.06,8106,13.19,74018.5,-2.51,-29.89,-30.55,0,*60
1491789853.34,8107,13.19,74020.0,-2.51,-29.89,-30.51,0,*65
1491789854.57,8108,13.19,74016.5,-2.49,-30.01,-30.67,0,*6E
1491789855.84,8109,13.19,74014.5,-2.51,-30.01,-30.51,0,*63
1491789857.1,8110,13.19,74016.8,-2.49,-29.89,-30.51,0,*6A
1491789858.35,8111,13.19,74018.5,-2.49,-29.89,-30.51,0,*6B
1491789859.58,8112,13.19,74020.0,-2.49,-30.01,-30.67,0,*65
1491789860.79,8113,13.19,74014.5,-2.45,-29.83,-30.45,0,*6A
1491789861.99,8114,13.19,74018.5,-2.45,-29.79,-30.45,0,*68
1491789863.19,8115,13.19,74016.3,-2.45,-29.95,-30.45,0,*6B
1491789864.42,8116,13.19,74018.0,-2.45,-29.95,-30.51,0,*6D
1491789865.65,8117,13.19,74014.8,-2.45,-29.95,-30.51,0,*6C
1491789866.89,8118,13.19,74016.3,-2.45,-29.95,-30.61,0,*60
1491789868.1,8119,13.19,74016.0,-2.45,-29.79,-30.33,0,*64
1491789869.3,8120,13.19,74018.0,-2.45,-29.79,-30.33,0,*6E
1491789870.51,8121,13.19,74018.0,-2.43,-29.83,-30.45,0,*6D
1491789871.72,8122,13.19,74016.3,-2.45,-29.79,-30.33,0,*6C
1491789872.93,8123,13.19,74014.3,-2.43,-29.79,-30.33,0,*6B
1491789874.14,8124,13.19,74018.0,-2.45,-29.67,-30.33,0,*65
1491789875.34,8125,13.19,74018.5,-2.45,-29.79,-30.33,0,*6B
1491789876.55,8126,13.19,74014.8,-2.45,-29.79,-30.33,0,*68
1491789877.76,8127,13.19,74016.0,-2.43,-29.67,-30.27,0,*65
1491789878.97,8128,13.19,74014.3,-2.43,-29.79,-30.33,0,*60
1491789880.17,8129,13.19,74016.3,-2.45,-29.79,-30.33,0,*67
1491789881.38,8130,13.19,74018.0,-2.43,-29.79,-30.33,0,*69
1491789882.62,8131,13.19,74018.3,-2.43,-29.79,-30.61,0,*6F
1491789883.85,8132,13.19,74016.0,-2.43,-29.95,-30.51,0,*6D
1491789885.08,8133,13.19,74020.3,-2.45,-29.83,-30.51,0,*6D
1491789886.33,8134,13.19,74014.3,-2.43,-29.95,-30.61,0,*68
1491789887.54,8135,13.19,74016.5,-2.43,-29.95,-30.67,0,*6F
1491789888.75,8136,13.19,74020.0,-2.43,-30.11,-30.67,0,*68
1491789889.96,8137,13.19,74018.5,-2.45,-30.11,-30.83,0,*65
1491789891.2,8138,13.19,74012.3,-2.43,-30.17,-30.67,0,*60
1491789892.44,8139,13.19,74016.0,-2.43,-30.11,-30.61,0,*61
1491789893.65,8140,13.19,74014.8,-2.45,-30.27,-30.67,0,*6A
1491789894.86,8141,13.19,74016.8,-2.43,-30.11,-30.67,0,*68
1491789896.09,8142,13.19,74016.0,-2.45,-29.95,-30.51,0,*6C
1491789897.3,8143,13.19,74016.3,-2.45,-29.95,-30.45,0,*68
1491789898.53,8144,13.19,74016.8,-2.45,-29.95,-30.51,0,*6A
1491789899.74,8145,13.19,74016.3,-2.45,-29.95,-30.67,0,*6E
1491789900.95,8146,13.19,74016.3,-2.43,-29.83,-30.45,0,*6C
1491789902.19,8147,13.19,74016.8,-2.43,-29.95,-30.51,0,*6F
1491789903.4,8148,13.19,74016.0,-2.43,-30.11,-30.67,0,*61
1491789904.64,8149,13.19,74018.5,-2.43,-30.17,-30.83,0,*6C
1491789905.85,8150,13.19,74018.8,-2.43,-30.27,-30.83,0,*67
1491789907.09,8151,13.19,74014.5,-2.43,-30.17,-30.83,0,*65
1491789908.36,8152,13.19,74014.0,-2.43,-30.17,-30.77,0,*6D
1491789909.6,8153,13.19,74018.5,-2.43,-30.27,-30.77,0,*6F
1491789910.84,8154,13.19,74016.3,-2.45,-30.33,-30.77,0,*6B
1491789912.1,8155,13.19,74016.8,-2.45,-30.17,-30.77,0,*6C
1491789913.37,8156,13.19,74016.0,-2.43,-30.17,-30.77,0,*69
1491789914.6,8157,13.19,74014.8,-2.43,-30.33,-30.89,0,*6F
1491789915.83,8158,13.19,74016.3,-2.45,-30.33,-30.89,0,*66
1491789917.07,8159,13.19,74014.0,-2.45,-30.17,-30.83,0,*6B
1491789918.3,8160,13.19,74014.0,-2.45,-30.17,-30.83,0,*61
1491789919.57,8161,13.19,74018.8,-2.43,-30.17,-30.77,0,*6D
1491789920.83,8162,13.19,74014.5,-2.45,-30.17,-30.77,0,*68
1491789922.1,8163,13.19,74014.5,-2.43,-30.17,-30.77,0,*6F
1491789923.36,8164,13.19,74018.0,-2.45,-30.17,-30.77,0,*6E
1491789924.6,8165,13.19,74012.5,-2.45,-30.17,-30.83,0,*64
1491789925.85,8166,13.19,74016.0,-2.49,-30.17,-30.73,0,*64
1491789927.06,8167,13.19,74018.8,-2.45,-30.11,-30.83,0,*60
1491789928.3,8168,13.19,74018.0,-2.45,-30.27,-30.77,0,*61
1491789929.56,8169,13.19,74018.8,-2.45,-30.17,-30.77,0,*63
1491789930.82,8170,13.19,74016.5,-2.45,-30.17,-30.77,0,*6B
1491789932.06,8171,13.19,74016.0,-2.45,-30.01,-30.67,0,*6C
1491789933.29,8172,13.19,74016.8,-2.45,-30.17,-30.83,0,*62
1491789934.52,8173,13.19,74018.3,-2.49,-30.33,-30.89,0,*63
1491789935.72,8174,13.19,74016.0,-2.49,-30.23,-30.83,0,*6F
1491789936.96,8175,13.19,74016.8,-2.49,-30.39,-30.95,0,*62
1491789938.16,8176,13.19,74016.8,-2.49,-30.23,-30.83,0,*6D
1491789939.39,8177,13.19,74018.5,-2.49,-30.23,-30.89,0,*66
1491789940.58,8178,13.19,74016.3,-2.49,-30.33,-31.05,0,*6D
1491789941.79,8179,13.19,74016.8,-2.49,-30.23,-30.83,0,*62
1491789943.02,8180,13.19,74014.5,-2.49,-30.17,-30.83,0,*63
1491789944.22,8181,13.19,74016.8,-2.49,-30.33,-30.83,0,*64
1491789945.45,8182,13.19,74014.8,-2.49,-30.17,-30.83,0,*61
1491789946.68,8183,13.19,74016.8,-2.49,-30.05,-30.67,0,*69
1491789947.94,8184,13.19,74014.8,-2.49,-30.17,-30.73,0,*68
1491789949.14,8185,13.19,74014.3,-2.49,-30.33,-30.83,0,*60
1491789950.39,8186,13.19,74014.0,-2.49,-30.01,-30.73,0,*6D
1491789951.64,8187,13.19,74018.8,-2.49,-30.05,-30.73,0,*68
1491789952.88,8188,13.19,74016.0,-2.45,-30.01,-30.67,0,*6A
1491789954.11,8189,13.19,74016.3,-2.45,-29.95,-30.61,0,*68
1491789955.34,8190,13.19,74016.3,-2.45,-30.01,-30.67,0,*63
1491789956.6,8191,13.19,74012.5,-2.49,-30.05,-30.73,0,*6F
1491789957.85,8192,13.19,74012.3,-2.49,-30.17,-30.73,0,*6F
1491789959.11,8193,13.19,74018.3,-2.45,-30.01,-30.61,0,*66
1491789960.31,8194,13.19,74014.5,-2.45,-29.79,-30.45,0,*60
1491789961.52,8195,13.19,74018.3,-2.45,-29.95,-30.45,0,*63
1491789962.74,8196,13.19,74012.3,-2.49,-30.01,-30.67,0,*69
1491789963.97,8197,13.19,74016.5,-2.49,-30.05,-30.67,0,*6C
1491789965.22,8198,13.19,74018.3,-2.45,-30.01,-30.51,0,*6E
1491789966.46,8199,13.19,74014.3,-2.45,-29.95,-30.61,0,*69
1491789967.66,8200,13.19,74016.3,-2.45,-29.95,-30.45,0,*6C
1491789968.92,8201,13.19,74014.0,-2.45,-30.01,-30.61,0,*6E
1491789970.17,8202,13.19,74016.0,-2.45,-30.01,-30.61,0,*6D
1491789971.38,8203,13.19,74016.3,-2.45,-30.11,-30.67,0,*6B
1491789972.59,8204,13.19,74016.5,-2.45,-30.11,-30.67,0,*6C
1491789973.8,8205,13.19,74016.8,-2.45,-30.11,-30.67,0,*6D
1491789975.03,8206,13.19,74014.8,-2.45,-29.83,-30.51,0,*68
1491789976.24,8207,13.19,74016.3,-2.45,-30.11,-30.67,0,*6F
1491789977.5,8208,13.19,74016.0,-2.45,-30.17,-30.77,0,*67
1491789978.71,8209,13.19,74014.8,-2.45,-30.11,-30.83,0,*6B
1491789979.97,8210,13.19,74016.5,-2.45,-30.17,-30.77,0,*6E
1491789981.2,8211,13.19,74016.8,-2.45,-30.01,-30.67,0,*69
1491789982.43,8212,13.19,74014.5,-2.45,-30.11,-30.61,0,*6D
1491789983.65,8213,13.19,74012.0,-2.43,-29.95,-30.67,0,*68
1491789984.91,8214,13.19,74018.8,-2.45,-30.17,-30.77,0,*6A
1491789986.14,8215,13.19,74018.3,-2.45,-30.11,-30.61,0,*6A
1491789987.38,8216,13.19,74018.5,-2.45,-29.83,-30.61,0,*6A
1491789988.59,8217,13.19,74016.5,-2.45,-29.95,-30.45,0,*6A
1491789989.82,8218,13.19,74014.8,-2.45,-29.95,-30.51,0,*60
1491789991.07,8219,13.19,74016.5,-2.45,-30.01,-30.61,0,*67
1491789992.3,8220,13.19,74014.0,-2.45,-30.01,-30.67,0,*6B
1491789993.53,8221,13.19,74016.3,-2.45,-29.83,-30.51,0,*6D
1491789994.74,8222,13.19,74012.3,-2.45,-29.79,-30.45,0,*6E
1491789995.97,8223,13.19,74018.3,-2.43,-29.95,-30.51,0,*6E
1491789997.2,8224,13.19,74016.3,-2.45,-29.95,-30.51,0,*6F
1491789998.46,8225,13.19,74018.8,-2.45,-30.01,-30.61,0,*68
1491789999.71,8226,13.19,74018.8,-2.45,-30.01,-30.61,0,*6B
1491790000.95,8227,13.19,74016.8,-2.45,-30.27,-30.77,0,*69
1491790002.21,8228,13.19,74014.8,-2.45,-30.17,-30.77,0,*65
1491790003.42,8229,13.19,74016.5,-2.43,-30.11,-30.67,0,*65
1491790004.69,8230,13.19,74016.0,-2.45,-30.17,-30.77,0,*6C
1491790005.92,8231,13.19,74014.0,-2.45,-30.17,-30.83,0,*66
1491790007.18,8232,13.19,74012.5,-2.45,-30.17,-30.77,0,*6E
1491790008.44,8233,13.19,74014.8,-2.45,-30.01,-30.61,0,*6F
1491790009.7,8234,13.19,74014.0,-2.45,-30.17,-30.77,0,*68
1491790010.91,8235,13.19,74014.8,-2.45,-30.27,-30.83,0,*61
1491790012.15,8236,13.19,74014.3,-2.45,-30.11,-30.61,0,*6B
1491790013.38,8237,13.19,74018.0,-2.45,-30.11,-30.77,0,*6D
1491790014.59,8238,13.19,74018.8,-2.45,-30.11,-30.67,0,*63
1491790015.83,8239,13.19,74012.0,-2.45,-30.27,-30.77,0,*66
1491790017.09,8240,13.19,74012.8,-2.45,-30.01,-30.77,0,*6C
1491790018.29,8241,13.19,74014.8,-2.45,-30.11,-30.83,0,*67
1491790019.53,8242,13.19,74016.0,-2.45,-30.17,-30.83,0,*62
1491790020.79,8243,13.19,74016.5,-2.45,-30.01,-30.61,0,*68
1491790021.99,8244,13.19,74012.0,-2.45,-30.11,-30.67,0,*68
1491790023.23,8245,13.19,74016.0,-2.45,-30.11,-30.61,0,*6F
1491790024.48,8246,13.19,74014.5,-2.43,-30.01,-30.61,0,*6B
1491790025.74,8247,13.19,74016.0,-2.45,-30.01,-30.61,0,*6C
1491790026.98,8248,13.19,74016.3,-2.43,-29.83,-30.61,0,*67
1491790028.19,8249,13.19,74014.5,-2.43,-29.83,-30.45,0,*60
1491790029.4,8250,13.19,74018.8,-2.45,-29.83,-30.45,0,*6E
1491790030.61,8251,13.19,74018.0,-2.45,-29.83,-30.45,0,*6F
1491790031.84,8252,13.19,74012.5,-2.45,-29.95,-30.51,0,*6E
1491790033.07,8253,13.19,74016.0,-2.43,-29.83,-30.51,0,*6E
1491790034.31,8254,13.19,74014.0,-2.43,-29.95,-30.51,0,*6E
1491790035.55,8255,13.19,74014.5,-2.43,-29.95,-30.61,0,*6C
1491790036.78,8256,13.19,74016.0,-2.45,-30.01,-30.67,0,*6A
1491790038.02,8257,13.19,74014.5,-2.45,-29.95,-30.61,0,*68
1491790039.25,8258,13.19,74018.3,-2.43,-30.11,-30.61,0,*65
1491790040.48,8259,13.19,74016.0,-2.45,-30.11,-30.61,0,*62
1491790041.74,8260,13.19,74014.5,-2.43,-30.01,-30.61,0,*6F
1491790043.0,8261,13.19,74016.0,-2.45,-30.17,-30.77,0,*68
1491790044.24,8262,13.19,74018.5,-2.45,-30.27,-30.77,0,*68
1491790045.48,8263,13.19,74016.0,-2.45,-30.11,-30.77,0,*6C
1491790046.71,8264,13.19,74016.3,-2.45,-30.17,-30.67,0,*6C
1491790047.97,8265,13.19,74016.5,-2.45,-30.17,-30.77,0,*6C
1491790049.21,8266,13.19,74014.5,-2.45,-30.17,-30.67,0,*6E
1491790050.47,8267,13.19,74016.3,-2.45,-30.17,-30.77,0,*6E
1491790051.71,8268,13.19,74014.8,-2.43,-30.11,-30.61,0,*66
1491790052.96,8269,13.19,74018.5,-2.45,-30.01,-30.61,0,*60
1491790054.22,8270,13.19,74018.3,-2.43,-30.01,-30.61,0,*6E
1491790055.43,8271,13.19,74012.3,-2.45,-30.11,-30.67,0,*6E
1491790056.69,8272,13.19,74014.3,-2.43,-30.01,-30.61,0,*6C
1491790057.92,8273,13.19,74012.8,-2.45,-29.83,-30.51,0,*6A
1491790059.15,8274,13.19,74016.0,-2.45,-29.95,-30.51,0,*6A
1491790060.36,8275,13.19,74018.3,-2.43,-30.11,-30.67,0,*6C
1491790061.62,8276,13.19,74014.3,-2.45,-30.01,-30.61,0,*6E
1491790062.87,8277,13.19,74016.0,-2.45,-30.01,-30.61,0,*6F
1491790064.13,8278,13.19,74016.0,-2.45,-30.01,-30.61,0,*60
1491790065.34,8279,13.19,74014.5,-2.45,-30.11,-30.67,0,*66
1491790066.54,8280,13.19,74018.5,-2.45,-30.11,-30.67,0,*60
1491790067.78,8281,13.19,74016.8,-2.43,-29.83,-30.51,0,*61
1491790069.02,8282,13.19,74014.5,-2.45,-29.95,-30.61,0,*60
1491790070.23,8283,13.19,74010.8,-2.43,-29.95,-30.67,0,*61
1491790071.47,8284,13.19,74012.8,-2.43,-30.01,-30.67,0,*63
1491790072.71,8285,13.19,74014.3,-2.45,-30.11,-30.77,0,*64
1491790073.94,8286,13.19,74014.8,-2.43,-30.17,-30.83,0,*6C
1491790075.21,8287,13.19,74014.0,-2.43,-30.17,-30.77,0,*66
1491790076.45,8288,13.19,74012.5,-2.43,-30.27,-30.77,0,*6A
1491790077.69,8289,13.19,74012.5,-2.45,-30.17,-30.67,0,*6F
1491790078.96,8290,13.19,74018.0,-2.43,-30.17,-30.77,0,*60
1491790080.2,8291,13.19,74012.0,-2.43,-30.17,-30.83,0,*6A
1491790081.41,8292,13.19,74016.8,-2.45,-30.27,-30.83,0,*6C
1491790082.67,8293,13.19,74012.5,-2.45,-30.17,-30.77,0,*65
1491790083.91,8294,13.19,74018.0,-2.45,-30.17,-30.83,0,*69
1491790085.14,8295,13.19,74012.5,-2.45,-30.17,-30.83,0,*68
1491790086.38,8296,13.19,74014.3,-2.45,-30.17,-30.83,0,*6B
1491790087.61,8297,13.19,74014.5,-2.45,-30.11,-30.77,0,*67
1491790088.82,8298,13.19,74014.0,-2.45,-30.27,-30.83,0,*66
1491790090.09,8299,13.19,74012.8,-2.45,-30.17,-30.77,0,*6F
1491790091.35,8300,13.19,74012.5,-2.45,-30.17,-30.77,0,*6E
1491790092.59,8301,13.19,74014.0,-2.45,-30.17,-30.67,0,*6E
1491790093.82,8302,13.19,74016.3,-2.43,-30.17,-30.67,0,*6B
1491790095.08,8303,13.19,74014.8,-2.45,-30.01,-30.61,0,*6D
1491790096.33,8304,13.19,74016.0,-2.45,-30.01,-30.51,0,*69
1491790097.56,8305,13.19,74014.5,-2.45,-29.95,-30.51,0,*6D
1491790098.79,8306,13.19,74012.0,-2.45,-30.01,-30.67,0,*6E
1491790100.03,8307,13.19,74016.5,-2.45,-29.95,-30.61,0,*6C
1491790101.26,8308,13.19,74016.3,-2.43,-30.11,-30.61,0,*61
1491790102.52,8309,13.19,74018.3,-2.45,-30.01,-30.61,0,*67
1491790103.75,8310,13.19,74014.5,-2.43,-30.01,-30.67,0,*6F
1491790104.99,8311,13.19,74012.5,-2.43,-30.11,-30.61,0,*69